GFSSW_sfc_wetblb_021.txt.gz
Wetbulb
60.95 60.75 60.81 60.86 60.50 60.25 60.12 60.39 60.74 61.01 61.11 61.04 61.33 61.76 61.58 61.14 59.66 50.91 47.66 52.34 55.66 63.86 60.86 51.30 48.93 48.34 47.63 47.67 47.23 44.18 38.10 35.41 35.31 37.05 37.43 39.83 39.06 40.29 39.50 38.47 37.44 38.72 38.15 39.84 41.30
60.39 60.13 60.27 60.48 60.19 60.32 60.38 60.28 60.38 60.55 60.74 60.81 60.90 61.46 61.26 60.27 51.39 48.68 57.40 61.37 64.07 63.37 49.41 47.24 46.38 47.15 45.44 44.77 44.93 41.94 37.00 37.92 38.88 38.60 38.76 40.42 40.05 40.82 38.68 35.95 35.20 35.89 38.54 39.42 38.35
58.52 59.53 59.46 59.67 59.75 60.15 60.16 59.80 59.95 60.13 60.34 60.30 60.59 60.96 60.44 57.17 47.90 46.99 61.50 63.22 62.96 61.16 50.47 47.96 47.00 46.55 43.53 43.44 41.88 39.78 36.25 40.24 41.15 41.19 41.43 40.00 38.59 40.37 37.80 35.75 35.79 35.08 35.91 36.26 35.42
57.62 58.37 58.94 58.84 59.23 59.80 60.01 59.37 59.68 60.02 60.14 59.92 60.36 60.49 58.96 51.36 41.41 49.73 62.21 62.25 61.38 52.51 49.62 47.87 46.20 42.65 40.85 40.09 42.89 38.52 41.04 41.54 43.31 42.27 41.06 39.45 40.33 38.99 38.63 38.92 40.21 38.77 37.66 35.35 34.32
56.85 56.96 58.61 58.43 58.75 59.56 59.83 59.25 59.34 59.81 59.75 59.73 60.15 59.70 52.84 46.37 47.22 50.72 58.81 56.41 49.63 49.78 47.36 45.96 43.73 41.50 38.89 39.36 41.82 38.68 39.98 41.54 42.04 41.86 40.45 40.47 39.60 39.40 38.69 36.12 38.86 37.64 36.48 34.61 33.99
56.50 56.45 58.15 58.23 58.39 59.06 59.40 59.23 59.02 59.35 59.67 59.70 60.26 58.58 49.08 42.60 50.30 53.09 50.23 49.24 48.20 48.44 46.09 45.68 42.89 43.39 41.17 40.92 39.31 39.60 40.39 40.90 41.69 41.29 40.41 39.42 37.19 38.41 36.78 35.79 35.67 36.10 34.05 33.73 34.04
56.87 56.21 57.41 58.09 58.28 58.55 58.87 58.72 58.82 58.81 59.52 59.62 59.89 54.59 47.82 46.52 49.71 51.36 50.27 47.17 47.42 47.16 45.75 44.81 44.70 42.87 41.99 39.43 41.98 39.93 38.02 39.52 39.27 39.80 39.37 39.21 36.29 37.61 37.44 36.00 34.65 33.97 33.15 33.61 34.00
57.39 56.69 56.68 57.79 58.05 58.19 58.51 58.43 58.19 58.71 59.44 59.27 59.29 51.65 44.42 50.35 49.68 51.15 49.09 48.10 47.99 47.25 47.10 45.83 45.38 44.03 40.85 41.25 40.23 37.24 35.79 33.79 38.32 38.80 38.54 38.02 33.59 38.69 37.28 35.64 33.62 32.44 31.06 33.25 33.89
57.09 56.89 56.86 57.72 57.73 57.67 57.93 57.69 57.87 59.03 58.86 58.86 51.69 47.86 42.91 53.43 49.24 50.55 47.85 46.08 46.26 46.02 45.44 47.94 45.36 40.69 40.07 36.06 33.74 33.50 30.84 31.48 35.51 38.87 37.00 36.20 34.02 37.53 36.94 35.98 33.76 32.55 31.90 33.28 32.36
57.13 57.23 57.14 57.38 57.61 57.71 57.31 57.78 57.04 56.28 54.35 52.78 50.71 46.11 45.56 45.44 49.21 49.57 47.35 46.38 44.35 44.44 44.95 43.94 40.31 37.58 35.90 35.07 31.22 32.03 29.82 30.59 30.30 34.70 34.68 34.04 35.22 36.94 35.63 35.08 34.68 33.19 31.91 32.25 30.51
57.00 57.67 57.45 57.24 57.69 58.17 54.05 46.70 45.80 43.63 45.55 43.12 42.29 43.86 45.57 49.06 48.95 46.97 46.38 45.02 44.48 42.51 40.78 40.25 38.12 35.01 37.45 36.31 35.03 32.05 30.71 29.90 31.42 35.91 34.30 33.81 35.38 39.03 36.55 35.05 32.80 30.58 31.18 31.93 29.98
56.88 57.58 57.54 57.07 57.56 57.29 46.33 42.26 42.91 43.15 40.31 43.10 43.47 44.45 47.61 47.03 43.50 45.75 46.03 41.60 40.95 38.37 39.31 38.26 36.33 39.10 38.43 36.18 34.71 32.37 30.64 30.32 33.48 33.86 33.77 32.76 32.06 35.74 37.14 35.36 36.24 34.30 31.89 31.89 29.08
56.57 57.06 57.32 56.77 56.58 48.72 43.59 42.48 48.65 46.42 38.19 40.80 45.10 44.77 45.92 46.92 43.37 43.30 44.14 41.40 39.22 38.17 37.94 36.67 37.89 38.98 37.00 33.94 32.95 31.06 30.29 29.79 31.43 31.61 31.43 28.77 25.50 31.47 33.71 33.51 34.40 36.71 34.33 33.11 30.52
56.36 56.76 57.17 55.50 47.76 42.91 44.06 47.71 48.66 45.99 31.82 36.10 40.56 43.70 44.82 43.97 40.33 44.32 43.18 41.56 38.87 38.52 37.64 36.86 37.43 36.57 33.94 33.81 33.70 29.01 32.97 31.70 30.52 27.54 24.00 28.89 23.56 27.56 30.80 32.76 30.31 32.49 31.51 31.55 29.24
55.81 56.59 56.91 51.83 42.11 42.31 45.81 48.53 46.15 41.24 21.09 37.44 40.96 45.75 43.51 40.51 40.39 40.49 42.50 40.72 38.29 38.25 37.90 37.11 34.72 33.20 32.95 34.05 34.59 32.98 31.90 29.91 28.77 26.66 23.29 24.00 21.70 24.68 26.94 28.82 33.01 28.91 29.98 30.41 29.28
54.52 56.29 54.16 51.14 45.82 44.18 47.55 45.04 42.07 32.75 24.26 34.94 40.56 39.37 38.71 39.14 39.44 40.75 39.97 41.16 38.59 36.86 34.23 36.16 35.51 35.06 35.28 33.99 33.37 34.03 30.45 28.57 24.99 23.35 18.46 24.07 24.05 22.54 25.39 29.45 30.41 28.15 29.59 28.39 27.55
54.51 55.76 51.06 48.79 45.43 47.22 46.86 41.12 30.47 24.32 34.98 34.79 37.11 38.25 36.45 36.52 37.17 38.31 36.79 34.92 35.20 32.08 31.22 32.65 32.81 33.24 35.23 31.42 32.34 31.20 28.27 23.33 21.04 17.33 21.56 22.72 20.28 30.37 33.30 33.46 31.77 29.42 27.68 27.66 28.24
54.79 55.33 51.48 49.63 47.53 47.17 41.41 36.16 23.98 30.26 32.58 37.55 38.09 36.81 35.95 37.38 36.16 36.22 34.27 33.03 35.61 34.67 30.07 30.57 31.15 32.13 34.40 32.83 31.36 28.25 29.60 25.04 15.80 16.60 23.87 22.00 20.98 27.58 30.41 28.54 27.98 29.77 29.48 28.09 26.59
54.89 50.86 50.01 48.46 48.13 45.19 35.34 26.44 29.97 32.81 35.77 37.48 36.03 32.55 33.00 35.66 35.91 33.59 32.31 32.33 36.28 36.91 34.54 28.65 28.60 29.06 30.04 30.05 31.33 28.24 24.99 28.45 23.22 4.47 11.12 22.61 24.03 29.19 27.17 26.14 24.64 27.01 26.75 25.94 26.45
51.37 50.28 48.45 50.19 48.11 41.73 32.91 33.46 32.63 37.48 37.95 37.36 33.90 35.67 31.41 33.73 33.01 32.46 32.10 34.43 35.82 36.85 36.74 34.70 29.97 27.22 26.93 28.29 27.28 27.34 29.64 23.29 19.99 11.83 9.64 18.96 21.91 27.42 28.80 27.87 23.06 23.18 24.45 25.66 26.42
50.75 44.71 46.10 49.65 46.47 41.14 34.40 33.54 34.70 39.10 40.22 37.97 34.29 32.04 33.83 33.70 34.06 30.96 33.03 35.10 35.94 33.73 34.33 32.41 31.81 26.40 26.87 25.75 26.25 23.85 24.00 24.02 24.06 22.67 16.37 12.81 24.75 29.04 30.59 30.32 23.27 24.84 26.13 25.80 25.44
48.23 39.14 44.00 49.06 40.83 37.44 35.04 33.43 37.81 36.08 40.10 38.16 36.78 36.67 35.68 35.77 33.36 32.38 32.28 37.68 38.03 34.84 32.60 31.82 29.50 24.43 24.25 23.49 25.41 26.99 27.92 28.29 23.08 18.31 17.44 18.85 26.46 29.21 29.50 30.08 26.49 26.11 26.67 25.53 25.89
43.55 42.15 44.55 45.92 33.87 34.81 32.70 34.28 37.56 34.84 36.99 36.95 35.69 37.88 37.59 35.51 32.95 33.41 36.82 38.33 36.72 35.67 32.33 32.66 27.53 19.51 24.01 23.35 22.83 22.45 24.87 26.55 24.72 23.28 23.49 19.48 25.59 27.68 27.89 25.73 26.19 25.52 25.10 25.48 25.29
42.89 36.41 41.67 42.63 40.80 35.36 33.53 34.17 33.65 37.35 37.57 36.36 35.34 36.74 34.33 34.10 37.77 34.71 32.76 35.02 34.15 34.72 39.83 38.22 29.38 28.15 27.72 28.57 23.93 21.08 22.67 24.57 27.19 22.41 26.28 26.35 28.16 33.75 34.42 31.71 25.48 24.66 24.22 24.86 25.00
43.79 39.14 39.83 35.34 37.06 38.66 35.39 33.85 33.51 33.11 36.18 37.47 35.13 36.06 35.49 32.76 33.68 33.45 36.15 31.04 29.36 33.68 32.38 32.89 29.73 27.35 32.84 33.86 27.62 28.22 30.19 23.20 23.06 27.05 25.64 30.05 30.03 33.91 36.60 37.53 35.77 33.94 25.92 24.78 25.15
43.81 41.88 38.83 36.60 36.05 36.92 37.61 34.90 33.34 34.36 34.37 33.67 33.75 35.09 36.86 34.29 35.13 33.64 35.94 33.90 33.47 26.07 27.40 26.99 27.57 26.91 27.68 29.32 27.67 27.22 30.86 30.67 28.03 28.66 29.08 29.70 29.14 37.55 39.46 39.13 37.22 29.05 25.72 25.18 24.45
50.32 48.98 43.34 40.37 37.26 35.24 34.70 34.74 35.07 37.16 37.39 38.32 36.90 35.83 34.09 36.22 40.16 40.77 37.61 38.14 36.71 32.26 24.73 23.34 23.65 20.97 25.52 27.91 26.60 24.17 29.18 30.54 32.30 33.14 31.93 27.23 32.11 36.84 35.80 32.13 28.71 26.12 25.86 25.43 24.40

GFSSW_sfc_wetblb_024.txt.gz
Wetbulb
59.55 60.60 60.77 60.95 60.95 60.86 60.94 60.86 60.71 60.69 60.95 61.17 61.16 61.74 61.54 61.07 59.61 49.51 46.12 52.28 54.50 63.40 60.62 49.33 47.41 47.18 46.99 46.63 45.86 42.73 36.84 34.05 35.19 35.79 38.13 39.21 38.78 38.35 38.25 38.00 36.05 37.28 36.90 39.11 40.18
58.49 58.89 60.37 60.48 60.44 60.65 60.75 60.72 60.18 60.30 60.48 60.82 60.83 61.36 61.23 60.41 49.16 46.97 56.64 61.48 63.10 62.75 48.31 46.81 45.28 46.65 44.74 43.74 43.74 40.77 35.75 37.05 38.47 38.32 37.91 39.56 39.09 39.87 37.83 35.09 35.34 34.76 36.52 38.27 38.07
57.39 57.71 58.63 59.91 59.90 60.65 61.00 60.77 59.85 59.78 60.21 60.27 60.48 60.73 60.23 57.19 47.04 45.37 60.60 62.65 62.14 60.64 49.22 46.84 46.13 45.35 42.20 42.50 40.82 38.40 35.44 38.70 40.10 40.66 40.91 39.42 37.74 39.86 37.57 34.95 36.97 35.41 35.75 35.69 34.56
56.79 56.80 57.30 58.94 59.49 59.85 60.62 60.77 60.15 59.73 59.97 60.05 60.14 60.23 59.01 49.80 40.10 48.20 61.84 61.38 60.36 52.31 48.20 45.98 45.65 42.03 39.74 39.16 41.06 39.08 39.76 40.14 42.17 41.73 39.91 38.36 38.70 37.62 37.88 39.09 38.16 38.24 37.92 34.88 33.73
56.71 56.56 56.21 57.09 58.86 59.47 60.03 60.46 60.14 59.58 59.50 59.99 59.92 59.51 52.92 46.81 46.73 50.16 59.04 55.54 48.50 48.55 45.98 44.67 43.33 40.26 37.95 38.28 39.96 38.74 39.00 40.63 40.69 40.81 40.13 39.36 38.94 39.04 37.86 35.83 37.28 37.17 35.98 34.86 33.27
56.83 57.20 56.67 56.57 58.39 59.15 59.66 59.92 59.79 59.31 59.22 60.09 59.78 58.17 49.46 42.55 49.80 51.12 48.50 47.88 47.05 46.95 44.62 45.09 42.58 42.49 40.66 39.70 38.83 38.01 39.46 39.76 40.24 40.19 39.46 38.16 36.51 37.27 36.61 34.49 34.34 35.59 34.43 33.82 33.37
57.01 57.50 57.43 57.53 57.95 58.68 59.03 59.29 59.41 58.75 59.24 59.66 59.95 53.46 45.85 46.07 48.87 49.75 49.26 45.80 45.80 45.75 44.73 44.03 44.52 42.36 40.87 37.93 40.22 38.18 37.12 38.75 37.21 38.58 38.70 37.77 36.26 36.31 36.15 34.50 33.42 33.40 32.72 33.00 32.97
56.67 57.10 57.36 57.64 57.77 58.15 58.71 59.06 58.51 58.42 59.22 59.32 59.36 50.24 44.49 49.13 48.99 49.76 47.65 46.62 46.75 46.26 45.94 45.23 44.79 43.68 40.35 40.00 38.56 35.82 35.05 33.50 36.84 38.25 37.52 36.63 33.35 39.12 35.27 33.92 32.57 31.79 30.50 32.66 33.03
56.21 56.60 57.46 57.91 57.58 57.60 58.28 58.13 57.72 58.50 59.21 59.04 50.81 47.16 43.29 52.92 47.81 49.07 46.28 45.38 45.10 44.87 44.56 48.17 44.57 39.66 39.24 36.04 33.90 33.12 30.93 30.62 34.91 37.56 36.12 35.60 33.95 37.50 34.82 33.80 32.83 32.01 31.31 32.44 31.98
55.99 56.08 57.42 57.82 57.48 57.61 57.78 57.42 56.46 55.52 53.76 52.05 49.78 45.18 44.78 44.56 47.92 48.17 45.76 45.40 43.62 43.28 44.07 43.30 39.82 37.32 35.14 34.87 30.06 31.01 29.05 29.81 30.33 34.17 34.39 33.74 34.65 39.03 35.46 33.47 34.14 33.61 32.32 31.92 32.59
56.07 55.88 57.24 57.71 57.79 58.08 53.61 45.20 44.34 41.57 43.99 43.27 41.99 42.42 44.21 47.80 48.01 45.84 45.22 44.40 43.37 40.96 39.29 38.98 37.05 34.62 36.83 36.53 35.84 32.85 30.35 29.82 31.08 34.29 32.73 33.42 34.10 38.13 38.56 33.81 32.69 32.41 31.21 31.70 32.81
55.38 55.58 56.96 57.62 57.68 57.26 44.99 41.85 41.30 41.48 38.86 41.95 42.59 42.91 45.80 46.02 42.43 44.58 44.85 41.19 39.65 36.83 38.08 36.98 35.20 38.49 38.04 36.25 34.07 31.19 29.57 29.84 32.49 32.30 32.97 32.52 32.44 35.47 38.58 38.10 35.34 35.98 32.99 32.58 32.67
54.72 54.97 56.43 57.33 56.59 47.02 42.93 42.13 47.89 44.77 37.31 39.74 43.59 43.36 44.03 46.64 42.37 42.50 43.61 39.87 37.36 35.54 36.25 34.96 36.41 38.50 37.18 33.47 32.83 30.76 29.32 29.25 30.80 30.25 30.39 28.53 28.98 29.64 34.87 34.63 35.25 36.22 37.04 34.52 33.41
54.91 54.59 55.58 55.97 47.62 41.36 43.30 46.19 47.36 44.50 29.98 34.79 39.26 42.50 44.71 43.10 39.93 43.15 42.45 40.12 37.17 36.40 36.47 36.63 37.06 36.72 33.43 34.19 33.93 29.43 32.12 30.32 29.38 27.17 24.25 28.44 26.49 27.43 33.15 35.01 33.30 32.56 32.39 33.36 33.41
54.75 54.33 55.94 53.01 46.82 41.71 44.68 47.66 45.35 39.68 20.77 35.89 39.55 44.78 42.33 39.89 38.99 39.42 41.34 39.51 36.32 37.15 36.56 35.81 34.09 33.20 33.12 34.32 34.18 32.50 30.73 28.34 27.33 25.03 21.29 23.15 21.66 26.08 26.95 31.01 36.42 37.40 31.67 32.63 33.04
54.81 54.40 55.36 49.62 45.58 43.64 46.95 44.11 41.08 30.70 23.27 33.16 39.75 38.90 38.01 38.28 38.15 39.35 38.38 40.00 37.40 36.42 34.61 35.21 34.34 34.23 34.73 32.77 32.41 32.62 29.28 27.12 23.49 22.04 18.15 25.94 25.40 22.93 26.07 30.58 32.23 32.05 30.58 30.22 29.88
54.87 54.30 53.28 48.94 45.32 45.92 45.64 40.29 29.79 23.09 33.33 32.61 35.95 36.88 35.51 35.93 36.81 37.60 35.76 33.85 33.40 30.61 30.61 32.78 32.13 32.65 34.09 31.56 31.49 29.90 28.43 23.67 20.10 17.13 22.46 22.13 20.13 30.84 31.63 32.81 33.78 33.83 31.19 28.26 27.41
54.86 54.21 53.34 49.66 46.61 45.97 39.64 35.29 23.64 29.01 30.79 36.07 36.81 35.74 34.58 36.15 34.99 35.14 32.64 32.05 34.58 33.06 29.46 29.61 31.23 31.96 33.58 33.72 31.57 27.98 29.56 24.29 15.05 15.98 26.46 20.59 20.88 28.77 31.69 35.06 29.65 27.74 28.43 27.90 25.83
54.77 49.98 50.74 49.29 47.79 43.96 35.37 25.80 27.86 31.39 33.60 35.64 35.16 32.78 32.67 34.88 34.96 33.30 31.93 31.76 35.08 36.45 34.31 29.24 29.22 28.75 30.37 29.82 30.60 27.37 25.92 28.16 24.09 8.30 12.93 24.53 25.06 29.59 31.40 30.59 28.46 26.32 27.77 26.68 25.54
51.24 49.95 48.86 50.37 48.47 45.57 33.80 32.20 30.90 36.22 36.15 36.78 32.74 34.48 30.20 33.05 32.33 32.67 32.30 33.78 35.80 37.14 37.05 34.80 30.95 27.21 26.99 28.25 26.49 26.71 28.77 24.00 22.62 15.54 10.63 23.19 23.88 28.63 32.53 32.96 31.34 26.19 26.08 26.44 24.74
50.29 44.76 45.64 49.36 47.60 43.31 34.15 31.97 32.73 37.77 38.83 36.78 32.98 31.23 32.81 33.07 33.72 31.31 33.35 34.93 36.69 34.70 36.69 34.57 33.63 29.30 27.05 25.81 25.44 24.02 24.04 23.71 25.03 22.21 16.96 14.22 26.39 29.48 32.25 33.13 32.28 28.98 27.89 26.17 25.15
48.50 40.01 43.99 49.97 41.16 39.13 34.58 32.97 37.65 35.01 37.40 37.12 35.33 34.68 34.02 34.20 32.53 31.04 31.86 38.04 38.48 35.60 33.48 34.36 32.10 29.12 29.73 23.10 24.95 25.65 27.28 27.90 23.96 20.32 16.09 17.75 26.72 30.24 32.02 31.71 30.81 28.17 28.44 25.84 26.15
44.79 43.66 45.85 47.53 33.86 34.87 32.20 33.00 36.10 33.48 35.87 35.76 33.77 36.01 36.04 33.11 31.65 33.26 36.71 37.27 36.38 36.28 33.22 33.41 29.72 23.93 25.63 24.13 23.78 23.69 26.35 27.10 25.58 24.32 20.64 18.20 27.10 30.55 30.18 29.83 27.99 27.44 26.81 25.32 24.47
43.87 37.38 41.15 42.72 41.72 36.50 33.86 33.22 32.96 36.35 36.74 34.71 33.88 35.85 32.49 33.14 37.18 34.24 31.58 34.25 35.14 36.35 39.40 39.63 31.17 28.86 28.10 28.58 26.40 22.97 24.69 26.57 29.02 26.14 26.74 26.48 29.84 35.05 36.19 36.89 38.76 34.39 26.19 25.50 24.95
44.72 39.79 40.82 34.57 37.24 37.69 35.64 32.87 33.28 32.01 35.28 36.61 33.62 34.66 34.39 31.62 33.08 32.62 35.14 32.27 31.52 34.75 33.21 34.52 30.63 30.59 33.22 34.67 26.03 26.92 28.26 27.07 24.30 28.15 25.96 30.36 30.45 34.08 37.03 38.12 39.30 38.33 31.95 25.36 24.10
45.90 41.95 40.65 39.15 39.38 38.14 37.45 35.08 33.82 33.61 32.97 31.89 32.80 32.98 35.18 32.43 33.87 32.12 34.10 33.54 34.17 26.57 28.73 28.67 28.92 30.25 28.95 32.15 28.56 28.17 31.10 31.68 27.16 29.14 28.60 29.98 30.07 38.58 40.38 40.88 39.35 38.74 36.90 27.32 24.69
50.68 48.26 43.68 39.84 37.95 36.16 36.44 36.35 36.55 37.97 37.88 37.76 36.93 35.36 34.08 34.73 38.25 39.49 38.35 35.24 35.27 33.31 26.19 23.68 25.16 20.22 25.29 28.31 25.94 23.13 28.80 32.03 33.39 34.31 32.08 26.43 32.26 37.69 36.89 37.09 37.22 37.20 30.59 28.31 26.41

GFSSW_sfc_wetblb_030.txt.gz
Wetbulb
58.75 59.09 58.99 59.12 59.50 60.81 61.49 61.67 61.81 61.62 61.13 61.09 61.08 61.47 61.58 61.51 60.88 54.72 51.21 56.36 57.85 62.80 61.39 54.22 53.86 53.90 55.39 53.47 53.27 51.77 47.91 45.51 45.65 44.62 46.63 47.44 47.19 47.29 46.71 47.25 46.94 48.41 47.63 47.03 49.45
57.82 58.06 59.09 59.45 59.55 59.87 60.64 61.10 61.24 61.32 60.97 60.73 60.63 61.14 61.27 60.59 55.91 52.31 58.32 61.05 63.66 63.26 53.60 53.04 52.13 53.38 52.86 51.84 52.31 50.87 47.59 45.95 48.44 47.87 47.30 47.63 47.72 48.21 46.76 46.56 46.41 46.61 47.16 45.91 46.38
57.38 57.54 58.79 59.04 59.27 59.59 59.86 60.50 60.97 60.94 60.79 60.31 60.48 60.64 60.37 59.51 53.40 52.96 60.56 62.75 62.84 61.22 54.24 53.20 53.13 53.01 50.80 51.43 50.10 48.71 47.27 47.54 47.95 48.35 47.74 47.36 46.54 48.36 47.21 46.34 49.27 48.95 49.72 45.66 45.00
57.12 57.06 57.64 58.46 58.93 59.40 59.58 59.84 60.57 60.79 60.64 60.07 60.34 60.20 59.41 55.94 46.68 53.49 61.54 61.47 60.11 56.83 53.43 51.67 51.46 50.52 49.73 48.55 49.10 47.10 47.20 47.54 48.15 48.19 46.75 46.40 47.35 46.21 47.48 50.07 50.02 50.83 50.34 46.74 45.26
56.85 56.56 56.61 57.74 58.39 59.01 59.32 59.42 60.07 60.39 60.11 59.97 60.35 59.84 57.12 51.56 51.65 54.45 59.27 57.62 54.33 52.92 51.53 51.34 50.85 50.15 49.11 48.18 47.56 47.09 47.55 47.45 48.05 47.25 47.15 46.04 46.67 47.12 46.92 50.01 49.96 47.47 46.73 46.52 46.10
56.55 56.26 56.16 56.73 57.97 58.49 58.93 59.14 59.80 59.87 59.63 59.78 60.32 59.06 54.17 47.90 54.91 55.15 52.91 52.01 51.64 52.57 50.99 51.59 51.35 50.20 48.64 48.17 47.22 47.56 46.73 47.44 47.35 47.37 46.69 45.34 46.66 45.06 49.23 48.33 48.01 46.29 46.51 47.04 46.55
56.36 55.95 55.77 55.94 57.52 58.21 58.77 59.20 59.52 59.27 59.08 59.43 59.94 56.20 52.25 51.20 55.37 54.20 52.37 51.12 51.14 51.99 50.97 50.50 51.71 50.06 49.30 46.60 46.91 45.73 45.16 46.54 46.10 45.90 45.61 45.54 44.21 44.11 49.80 44.82 46.02 45.38 46.32 46.34 46.37
56.04 55.54 55.50 55.78 56.97 57.70 58.37 58.88 58.84 58.59 58.76 59.14 59.08 55.29 50.66 53.24 55.62 53.06 52.61 51.13 51.40 51.56 51.42 51.13 51.63 49.75 47.86 47.14 46.00 45.00 44.28 43.49 45.69 44.78 44.63 44.83 43.05 49.30 49.73 45.26 46.18 47.45 46.46 45.04 45.05
55.48 55.17 55.33 56.03 56.43 57.03 57.95 58.17 58.04 57.96 59.22 58.84 55.74 53.59 49.33 55.18 51.86 53.62 52.41 50.35 50.43 50.71 51.70 50.85 51.30 48.22 47.22 46.24 45.25 44.03 42.21 42.24 42.98 45.42 43.57 43.64 44.52 47.73 45.91 44.79 45.87 47.86 47.59 45.38 44.58
55.04 54.95 54.91 55.47 56.01 56.81 57.47 57.51 56.32 56.64 55.69 53.00 52.82 50.47 50.55 49.34 52.14 52.04 50.97 51.05 49.42 50.36 50.12 50.11 49.51 47.48 45.81 45.40 39.08 41.74 41.06 42.55 41.76 43.80 42.23 42.60 42.66 46.78 48.38 44.32 45.67 47.82 48.48 47.20 44.53
55.22 54.66 54.56 54.73 55.94 57.13 55.71 52.52 49.95 48.04 49.89 49.65 49.26 49.08 48.28 51.77 52.51 50.35 50.09 49.61 49.64 48.15 44.69 47.01 45.31 43.00 45.45 46.31 45.34 43.30 41.91 42.13 45.35 42.02 41.55 42.95 42.45 44.83 47.08 46.72 45.51 46.05 47.22 47.67 45.86
55.49 54.74 54.28 54.94 55.70 56.83 50.97 48.98 48.16 46.95 44.25 47.54 45.91 45.90 48.16 51.78 47.67 49.22 49.79 47.03 46.22 43.71 45.21 44.17 41.77 46.36 45.32 44.57 42.62 42.33 41.73 42.25 44.94 40.31 39.37 41.38 40.19 43.08 44.71 45.50 46.23 46.28 47.25 47.53 46.65
55.31 55.11 54.34 54.86 55.40 51.01 48.53 47.77 51.27 50.21 45.06 45.81 46.63 46.63 47.37 49.86 47.10 47.57 47.72 46.56 45.09 42.44 43.13 42.28 44.34 42.65 42.64 42.07 40.49 41.56 41.25 42.27 40.52 39.83 38.70 36.71 38.02 39.79 43.41 43.13 44.40 45.00 46.53 47.31 45.90
55.60 55.20 54.91 55.07 51.09 50.83 48.02 49.61 50.97 49.29 38.99 39.82 41.98 46.38 47.79 48.19 44.13 46.27 47.08 46.87 43.89 42.54 42.18 43.00 44.12 41.97 41.61 41.50 42.17 39.43 42.79 41.15 39.16 37.49 36.59 37.51 34.27 41.50 43.10 42.57 42.86 45.87 47.86 44.66 43.97
55.55 55.22 54.99 54.35 50.96 48.59 47.63 50.28 50.00 45.65 30.39 40.55 41.61 47.98 46.90 44.33 43.47 43.44 46.11 45.71 42.73 41.52 42.51 41.95 39.74 39.34 39.78 41.60 42.39 41.29 38.02 37.73 36.61 36.54 33.42 37.92 33.30 39.22 36.88 38.02 41.69 44.91 47.00 46.10 45.38
55.60 55.28 54.31 52.50 51.25 50.38 49.75 49.20 46.92 36.55 28.16 37.56 42.87 41.83 42.64 42.52 41.72 42.70 43.15 45.43 44.53 42.34 41.60 42.16 41.37 41.22 42.66 37.15 38.34 37.85 37.46 36.04 33.64 34.86 30.49 37.82 36.24 37.40 38.28 39.72 42.29 44.66 46.69 44.61 43.11
55.61 55.11 53.20 52.65 49.70 49.96 49.46 47.13 35.85 30.38 36.82 36.39 39.24 40.43 40.41 39.99 40.31 40.59 39.46 39.19 39.02 36.29 37.66 40.09 39.95 39.72 39.57 38.85 37.93 37.99 38.03 34.45 33.70 32.11 31.70 34.53 31.81 36.73 40.90 42.49 43.04 44.93 46.76 43.49 43.14
55.54 54.85 53.29 52.15 53.14 50.86 46.78 41.64 29.19 35.79 36.32 40.20 39.92 38.71 38.99 40.39 40.18 39.26 37.75 37.75 39.76 38.40 36.74 36.82 36.09 37.38 40.11 41.58 41.13 37.10 39.50 35.62 28.63 29.93 32.81 30.76 28.97 37.99 42.01 43.91 44.41 40.82 43.07 40.43 40.39
55.50 53.36 51.81 52.84 50.86 48.99 42.14 33.34 33.99 36.67 38.60 36.94 38.48 37.04 37.75 38.84 39.59 38.20 38.65 38.71 41.09 40.16 37.56 35.09 36.48 35.58 35.24 36.95 37.78 35.16 34.01 38.12 34.23 29.75 27.74 36.00 40.04 40.65 39.90 39.77 39.62 39.22 39.90 40.76 40.66
52.98 50.18 50.01 52.38 50.65 47.47 37.97 34.52 36.83 39.84 38.28 39.72 36.18 39.18 36.05 38.66 36.36 37.62 37.77 40.48 39.93 40.43 43.00 39.23 35.00 36.59 31.46 35.54 33.60 35.21 36.34 32.32 33.65 28.51 27.65 34.08 35.25 36.75 39.54 38.87 40.43 40.06 40.70 43.31 41.24
52.50 45.60 50.52 51.23 50.96 44.42 33.59 35.60 38.26 39.83 40.30 38.48 37.79 36.88 37.12 37.45 38.54 36.53 38.79 39.99 41.47 40.13 40.88 40.37 39.18 34.71 33.06 32.73 34.62 31.72 32.89 32.36 31.83 31.52 29.32 27.68 33.39 41.03 39.89 40.03 39.91 41.81 42.86 44.54 42.12
49.73 41.70 48.88 50.95 40.78 40.50 34.81 38.78 39.74 38.33 39.71 39.58 38.69 38.73 37.74 37.70 36.56 37.10 37.13 39.75 43.26 40.09 36.56 40.21 37.02 34.98 36.67 32.86 33.68 34.28 35.45 36.26 32.17 30.21 30.97 31.88 32.26 36.81 41.37 41.90 41.33 41.41 42.14 42.81 42.36
46.27 45.28 47.65 49.34 37.40 36.19 39.30 38.60 39.43 38.77 38.50 37.85 37.22 38.43 39.51 36.55 32.59 37.25 38.72 42.31 41.03 40.57 38.22 37.54 34.14 30.97 33.11 29.64 29.79 32.08 32.65 34.98 37.12 35.72 31.14 29.23 31.86 41.71 42.30 42.61 40.29 40.98 43.10 42.01 42.33
46.87 38.83 41.29 43.38 44.09 40.22 38.42 38.09 36.82 40.42 40.36 38.77 35.56 37.51 34.80 33.50 36.63 34.73 36.52 39.18 40.52 40.80 41.34 41.27 35.85 34.29 30.44 34.50 35.01 31.98 32.59 33.19 33.52 30.63 31.58 32.29 34.89 39.31 41.15 41.30 42.49 43.64 42.57 41.41 42.60
47.94 41.53 40.08 33.42 36.86 39.42 40.47 39.68 38.23 35.85 38.15 39.08 35.02 36.22 35.50 32.53 34.84 34.67 37.37 38.26 36.97 39.09 38.71 38.42 31.34 33.94 35.65 37.26 36.98 35.76 35.16 34.86 30.31 32.87 30.90 34.14 35.09 38.78 40.95 41.65 42.95 43.80 43.69 43.39 43.38
42.84 42.89 40.58 39.79 39.91 37.42 37.88 37.52 37.94 40.14 39.41 35.69 35.15 38.19 36.61 33.84 34.66 36.77 36.78 36.77 35.67 33.10 35.08 35.55 31.73 33.67 30.69 35.29 35.26 32.56 35.71 35.78 35.25 35.36 35.32 34.09 32.90 40.21 41.19 42.02 41.75 42.17 42.45 41.61 41.79
45.52 45.28 42.35 40.28 38.51 36.64 35.74 36.18 37.84 40.79 41.88 42.32 40.05 38.07 36.74 37.46 40.61 41.09 41.43 39.56 38.71 36.96 34.73 32.85 31.68 30.24 26.55 32.74 32.25 26.27 32.10 33.77 34.92 36.99 36.06 31.61 36.93 41.41 40.78 41.00 41.54 42.31 42.54 41.46 41.06

GFSSW_sfc_wetblb_033.txt.gz
Wetbulb
58.61 59.19 59.90 60.13 60.23 60.49 60.68 61.01 61.23 61.55 61.46 61.07 60.99 61.33 61.65 61.45 60.40 57.60 53.10 57.62 59.51 62.86 60.88 56.23 55.75 55.78 57.30 55.40 55.66 54.60 48.67 47.47 48.05 47.19 48.65 50.26 48.94 50.42 50.86 50.70 50.27 51.59 51.57 51.03 52.63
58.07 58.12 59.11 59.63 59.76 60.11 60.34 60.46 60.69 61.12 61.13 61.01 60.54 60.97 61.38 60.92 58.17 55.09 60.65 61.49 62.65 62.73 55.93 54.43 53.85 54.68 54.50 54.14 54.31 52.16 49.49 48.94 50.39 50.23 49.01 50.10 49.83 50.92 48.24 48.89 49.55 50.23 51.40 49.74 49.98
57.37 57.33 57.55 58.71 59.07 59.67 60.01 60.17 60.56 60.66 60.81 60.71 60.47 60.95 60.67 59.89 54.67 54.81 61.36 62.67 62.34 60.87 56.29 55.31 55.27 54.69 52.91 53.92 53.28 52.21 49.29 50.34 50.40 50.64 50.29 49.73 49.48 51.13 48.85 48.44 51.19 50.86 51.93 49.38 48.47
57.05 56.83 56.86 56.98 58.24 59.08 59.54 59.77 60.29 60.50 60.59 60.36 60.36 60.68 59.98 58.73 47.54 55.11 60.97 60.95 60.49 58.88 55.38 53.93 53.87 51.66 51.51 50.79 52.76 48.42 51.58 50.67 50.45 50.33 49.12 48.53 50.52 48.80 49.46 50.69 52.96 53.96 54.42 51.28 48.80
56.67 56.44 56.27 56.37 57.14 58.17 58.81 59.30 59.65 60.11 60.09 60.07 60.28 60.51 58.97 52.88 52.62 56.29 58.29 58.06 56.88 55.39 53.87 53.51 53.08 52.82 50.67 51.19 50.36 48.75 50.64 50.16 50.68 49.79 49.36 50.02 47.97 48.78 49.77 52.51 53.41 52.66 51.17 51.40 49.68
56.44 56.10 55.87 55.93 56.56 57.47 58.04 58.59 59.28 59.82 59.65 59.68 59.94 59.37 56.02 48.58 56.85 57.42 55.01 53.64 53.78 53.97 53.44 54.03 53.75 53.36 51.24 50.06 49.10 50.11 49.57 49.79 50.43 49.54 49.14 47.09 48.64 48.07 50.70 52.80 52.21 51.97 50.11 50.37 50.49
56.36 55.86 55.49 55.58 56.75 56.92 57.52 58.18 59.02 59.26 59.26 59.18 59.91 58.52 53.67 51.30 57.02 56.44 54.16 53.40 53.22 53.60 52.56 53.62 54.19 52.45 52.15 50.05 50.49 48.91 46.40 49.89 49.58 48.91 47.73 48.37 45.52 46.39 50.91 50.75 50.01 50.49 50.92 50.49 50.67
56.30 55.56 55.32 55.30 56.30 56.23 56.85 58.12 58.60 58.69 58.89 59.06 59.49 56.86 50.79 55.29 57.99 54.51 54.49 52.59 53.60 53.97 53.94 53.74 53.76 52.69 50.80 50.40 48.94 46.85 47.89 44.21 48.99 48.22 47.51 46.99 43.91 49.93 52.38 50.56 48.95 50.17 50.90 50.25 50.38
55.66 55.23 55.50 55.66 55.67 56.05 56.79 57.52 57.96 57.86 58.46 59.05 57.23 55.35 49.58 54.96 53.14 56.04 54.91 51.88 52.33 53.09 53.38 52.65 53.54 51.40 49.38 46.90 45.99 47.84 43.04 44.67 46.46 48.11 46.90 45.34 45.22 49.95 50.87 49.55 48.81 50.05 50.79 50.95 50.62
55.47 55.11 55.34 55.42 55.35 55.82 56.56 57.72 57.34 56.32 56.46 55.45 54.95 51.08 52.28 50.23 53.76 54.12 53.41 53.07 50.76 51.69 50.94 51.08 50.66 47.55 47.89 46.21 40.04 42.95 43.02 44.06 43.79 46.89 45.88 44.81 43.72 48.16 50.40 50.31 49.89 50.17 50.27 50.68 51.02
55.76 55.50 55.51 55.37 55.51 55.63 56.02 54.80 52.03 50.72 52.30 50.57 51.38 51.11 49.85 53.32 54.32 52.42 52.03 50.75 50.94 49.73 46.03 49.07 45.38 43.47 46.17 47.57 46.82 45.53 43.83 42.52 44.96 47.19 44.87 44.67 44.77 46.83 49.42 49.68 49.13 49.85 50.14 50.31 50.62
56.11 55.78 55.36 55.58 55.62 55.81 54.40 50.40 50.38 49.10 44.75 50.27 49.79 49.75 51.09 53.80 49.77 51.25 51.66 47.89 47.08 44.55 47.85 45.31 42.43 47.03 47.92 47.24 45.39 44.55 42.63 42.29 45.28 46.97 43.07 43.91 43.08 46.60 47.93 48.41 49.20 49.01 49.11 49.49 50.24
56.20 55.71 55.47 55.49 55.41 54.54 51.84 50.45 53.70 53.09 46.34 47.16 49.44 48.18 49.21 50.64 47.87 49.39 49.60 48.68 46.19 44.90 45.65 43.14 45.25 46.45 45.25 44.87 42.57 43.02 41.89 42.39 42.61 45.65 42.77 41.04 40.06 43.45 46.48 47.57 47.90 48.49 48.71 49.05 49.27
56.30 55.86 55.55 55.32 52.79 54.06 50.35 52.04 53.74 52.47 39.86 42.45 43.17 47.34 49.04 49.67 44.44 48.52 50.31 48.55 46.31 43.32 44.87 44.43 46.97 44.91 43.91 42.11 43.70 39.74 45.31 44.45 43.22 41.26 37.40 41.91 35.00 42.65 44.81 45.87 47.22 47.73 48.41 49.25 50.06
56.05 55.83 55.53 54.09 51.53 51.95 50.56 52.96 52.83 49.78 32.93 42.15 42.82 49.68 49.03 45.78 45.01 44.53 47.68 46.70 43.45 43.64 44.08 42.37 43.85 41.96 41.41 42.78 45.06 42.20 41.22 41.63 41.90 40.09 39.77 39.81 36.63 40.10 43.69 42.17 43.46 45.61 47.71 49.31 50.09
56.19 55.72 54.74 54.34 54.98 53.72 53.21 52.62 50.45 38.40 31.48 39.58 44.62 42.98 43.83 44.56 43.39 43.73 44.56 47.16 46.10 43.63 44.03 43.30 44.14 43.78 44.60 41.22 42.85 41.52 40.68 40.18 39.62 38.70 32.54 39.06 38.31 38.29 41.08 41.25 43.60 45.10 46.20 48.74 47.29
56.18 55.53 53.98 55.07 52.36 53.43 53.00 49.79 37.47 32.31 40.33 39.68 41.26 42.62 42.86 42.89 42.52 41.86 40.66 39.56 39.22 36.59 38.46 42.91 42.49 44.17 42.65 40.69 40.38 40.09 39.67 35.08 34.44 33.49 31.98 40.85 37.70 39.95 44.05 44.39 44.96 45.09 46.46 48.12 46.77
56.20 55.23 54.01 54.76 56.50 55.02 50.52 42.04 31.04 38.99 39.89 42.42 41.62 41.78 40.45 43.31 42.63 41.77 40.88 39.45 42.51 41.83 39.26 38.49 36.60 41.18 41.94 42.44 42.57 38.65 40.84 36.20 29.24 30.27 33.69 38.32 34.00 39.74 46.38 46.76 46.05 46.27 46.98 46.56 44.99
56.48 54.33 52.56 54.61 54.81 53.54 45.00 33.56 37.07 41.62 42.83 40.28 40.51 38.58 39.43 41.34 41.65 41.64 41.01 41.76 43.70 42.25 37.61 37.74 38.05 38.25 39.99 40.41 42.66 38.57 35.08 40.89 36.04 35.82 32.36 36.89 41.04 45.68 44.71 44.24 44.43 44.35 44.11 44.06 44.70
53.92 51.63 50.71 54.28 53.23 48.32 37.60 35.85 41.68 44.43 42.75 41.36 37.24 40.54 37.64 40.17 38.37 39.51 40.63 44.10 42.59 44.40 45.50 42.12 36.46 40.93 34.14 37.86 37.46 38.00 39.48 34.14 35.00 28.87 28.07 34.83 36.43 37.48 41.53 42.99 43.46 43.33 43.68 45.67 46.11
53.23 46.40 52.44 53.25 50.77 43.78 32.15 34.31 42.65 45.41 42.75 38.97 38.68 39.09 40.23 40.14 41.07 39.67 39.69 43.39 44.69 44.18 44.30 42.90 40.09 37.16 35.45 34.28 37.63 33.55 34.50 34.55 34.40 35.89 30.44 28.24 34.00 42.57 42.11 44.12 44.07 44.56 44.46 45.62 46.95
50.89 42.12 51.19 51.25 40.63 39.60 33.76 39.60 42.65 43.58 42.40 40.05 40.62 39.23 38.65 39.55 38.92 38.69 39.01 41.99 45.26 43.11 38.23 41.30 38.14 34.86 38.12 41.93 39.41 39.84 38.43 38.03 32.03 31.22 33.85 32.67 32.74 41.17 43.73 44.65 43.85 43.88 44.42 47.24 46.82
47.15 47.09 49.19 50.11 37.78 35.65 37.79 38.88 41.42 42.05 40.37 36.87 36.32 38.92 40.85 36.36 32.74 37.89 40.00 44.24 44.46 41.96 39.56 39.21 34.24 30.31 32.86 35.11 34.15 34.23 36.91 37.44 38.48 36.61 31.53 30.16 32.62 43.77 45.04 43.95 43.28 43.49 44.90 45.27 45.54
46.60 40.29 41.98 43.89 45.43 41.51 36.96 38.35 38.91 44.72 42.55 41.86 37.85 38.78 36.85 35.16 37.96 35.59 37.81 42.41 43.35 42.24 42.89 41.28 35.39 31.67 28.80 34.90 38.99 33.36 34.64 36.55 35.05 31.26 31.79 32.66 35.33 39.82 41.98 42.81 44.54 45.28 45.95 46.31 46.35
44.63 42.08 42.31 35.04 37.73 40.86 41.28 40.01 38.51 38.58 43.38 43.75 39.26 37.83 36.38 34.13 35.81 34.14 37.08 38.73 40.45 41.29 39.33 38.70 30.99 34.04 35.17 37.00 37.16 35.23 35.03 35.71 33.53 34.48 31.38 34.48 35.55 39.65 42.09 43.36 44.61 45.21 44.96 44.45 44.53
38.61 40.60 41.36 39.56 41.80 38.72 39.57 38.08 38.27 40.10 41.62 40.15 37.14 39.28 39.66 34.91 37.24 37.24 38.14 37.62 36.32 37.33 36.45 37.55 30.58 32.95 30.63 35.13 34.86 32.52 35.22 35.66 35.71 36.03 36.28 35.82 34.90 42.01 43.01 43.73 42.73 43.21 44.02 43.69 43.73
43.75 42.21 35.87 35.29 37.36 37.32 37.17 38.92 38.82 41.91 43.12 44.58 42.87 39.06 38.03 38.44 41.32 43.33 44.48 43.95 38.90 36.30 34.04 32.63 31.13 29.69 26.59 33.25 32.88 28.20 32.69 34.05 35.73 37.98 37.42 32.52 37.66 42.50 41.76 42.20 43.02 43.97 44.52 43.80 43.71

GFSSW_sfc_wetblb_036.txt.gz
Wetbulb
59.09 59.00 59.42 60.02 60.20 60.61 60.89 61.09 60.96 61.26 61.34 61.43 61.03 61.54 61.59 61.77 60.65 57.76 53.20 58.89 59.80 62.42 60.66 56.40 55.72 54.94 56.17 54.80 54.63 52.96 43.81 42.84 45.45 44.80 44.94 46.91 45.06 47.59 46.58 44.73 46.22 48.62 46.13 47.34 49.54
57.93 57.86 58.15 58.67 59.29 59.87 60.32 60.60 60.61 60.91 60.91 61.15 60.78 61.06 61.31 61.08 57.36 55.31 62.19 63.56 63.14 62.71 56.41 53.65 53.06 53.80 51.73 52.83 52.32 48.16 45.12 46.48 47.25 47.12 44.94 47.13 46.29 46.54 43.98 44.59 45.25 46.37 47.33 48.46 47.56
57.43 57.30 57.30 57.38 58.03 59.01 59.60 59.95 60.46 60.48 60.63 60.60 60.61 60.87 60.82 59.50 55.12 54.99 63.03 63.60 63.00 61.35 56.92 55.00 54.33 53.74 50.67 52.08 50.67 49.24 45.32 48.02 48.25 48.03 47.65 47.05 46.21 47.72 44.92 43.80 46.19 46.11 47.26 46.17 44.79
57.00 56.83 56.80 56.97 57.29 58.20 58.86 59.25 59.81 60.27 60.37 60.21 60.33 60.59 60.32 58.97 45.96 55.88 62.87 62.42 61.66 58.50 55.45 53.46 53.28 50.78 48.60 48.59 51.38 45.41 49.33 49.68 49.88 48.42 47.11 45.24 46.94 45.89 46.25 46.92 48.89 47.31 49.42 46.66 44.95
56.66 56.46 56.41 56.50 56.80 57.61 58.21 58.57 59.04 59.68 59.94 60.05 60.20 60.49 59.02 52.56 52.26 56.44 60.27 59.63 56.63 55.73 53.31 52.41 50.98 50.37 47.80 49.18 49.12 46.21 47.35 48.98 49.01 47.68 46.55 47.84 45.47 44.93 45.62 47.94 49.72 49.62 48.38 46.36 46.25
56.80 56.51 56.33 56.50 56.58 56.97 57.51 57.95 58.55 59.20 59.49 59.62 60.01 59.62 55.57 47.16 56.38 56.95 53.81 54.27 54.54 53.35 52.01 52.52 51.61 51.44 48.51 48.06 46.53 47.00 47.47 47.32 48.26 47.72 46.94 44.85 44.23 45.23 45.98 48.61 48.32 48.86 46.79 46.82 46.62
57.14 56.65 56.21 56.23 56.52 56.45 56.94 57.53 58.28 58.85 58.98 59.20 59.73 58.55 53.25 50.45 56.68 56.02 54.31 53.05 52.91 52.37 50.93 52.58 52.71 49.89 50.51 47.59 49.02 46.37 42.73 45.63 46.49 46.82 45.22 45.49 41.95 42.86 47.32 47.37 46.70 47.05 47.14 46.78 46.80
56.51 56.07 55.88 55.91 56.08 56.16 56.47 57.24 57.98 58.43 59.00 59.38 59.55 56.84 49.60 55.54 56.41 54.20 54.28 52.37 53.20 53.29 53.16 53.00 52.49 50.80 48.64 48.63 46.56 42.44 42.73 38.72 44.75 46.44 44.66 43.67 37.79 45.63 48.05 46.69 45.09 45.30 45.14 46.22 46.79
56.01 55.64 55.81 55.88 55.77 55.77 56.26 56.77 57.24 58.80 58.74 58.65 56.16 54.56 48.95 55.59 52.84 55.26 53.77 51.69 51.54 52.37 52.58 52.34 52.24 48.43 47.20 41.77 39.58 41.89 36.76 39.51 42.84 46.29 43.17 41.58 38.61 45.15 46.39 44.11 44.11 44.63 45.39 46.15 46.42
56.00 55.70 55.94 55.94 55.79 55.89 56.10 56.87 58.08 56.11 55.93 57.05 54.82 50.26 51.05 49.83 53.07 53.82 52.66 52.63 50.33 50.18 49.69 48.74 47.12 43.13 42.12 40.50 34.39 37.04 37.95 39.88 39.34 42.25 42.15 39.47 39.54 43.81 45.73 45.05 44.73 45.98 46.46 46.39 47.33
56.33 56.06 56.17 55.98 56.10 56.51 54.53 53.37 50.58 50.21 51.88 49.06 50.03 49.35 50.20 52.83 54.02 51.52 51.59 50.01 49.94 47.73 42.07 45.57 40.46 38.56 41.61 43.64 43.84 42.43 40.63 39.31 42.48 44.58 41.38 40.65 41.22 43.44 46.18 44.53 44.47 46.40 47.25 46.98 47.71
56.71 56.29 56.21 56.26 56.43 56.57 54.58 49.78 48.80 48.08 42.52 48.44 48.89 50.17 51.87 52.82 48.70 50.50 50.82 45.59 45.15 41.14 43.75 42.11 38.68 44.15 45.48 44.61 42.22 40.60 38.37 38.69 41.96 42.64 40.81 39.62 39.63 42.86 44.12 45.14 46.04 46.29 46.63 47.39 45.46
56.91 56.31 56.10 56.17 56.00 55.24 50.97 50.05 53.54 52.82 43.85 45.86 48.12 47.65 47.91 50.11 46.28 47.65 47.72 46.54 43.63 41.67 42.44 39.85 42.43 45.92 43.38 41.43 40.32 39.97 38.02 38.22 38.15 41.11 37.80 36.25 34.52 38.23 42.10 44.91 45.96 46.57 46.99 47.03 44.20
56.98 56.44 56.05 55.45 53.71 52.89 49.70 51.98 53.01 52.56 36.65 41.30 43.60 47.02 48.62 48.62 42.91 49.14 49.01 46.71 44.22 41.01 42.03 41.27 44.67 43.51 41.90 40.54 41.01 36.65 41.25 40.50 39.49 35.82 31.23 37.57 28.69 37.00 38.95 41.16 42.52 43.74 44.24 44.77 43.48
56.76 56.40 55.99 54.89 52.31 50.19 50.49 52.40 51.75 49.21 26.78 43.21 41.99 49.73 48.78 44.17 43.62 43.55 46.62 44.68 41.31 41.14 41.32 39.00 39.76 39.31 38.80 40.27 41.79 38.16 39.15 37.35 36.94 34.47 33.23 33.62 30.32 34.75 39.99 38.38 41.37 42.53 43.95 44.80 43.47
56.90 56.46 55.16 54.35 54.45 53.55 53.54 52.16 49.50 35.67 26.26 40.01 43.39 42.22 42.68 43.29 42.80 42.66 42.79 44.52 44.25 41.26 40.84 40.54 41.63 40.49 40.40 39.62 39.85 39.82 36.99 36.37 34.09 32.30 25.56 32.95 33.05 31.52 35.40 38.48 39.63 41.73 44.04 42.66 42.40
56.89 56.29 54.02 55.77 51.96 53.49 52.50 48.52 34.59 28.93 41.35 38.69 39.85 41.98 40.96 40.83 41.11 40.14 38.54 36.56 35.28 32.16 33.31 38.00 39.28 40.11 40.68 37.09 37.05 36.54 34.04 26.98 25.15 23.41 25.80 35.03 31.61 36.70 38.51 39.32 40.67 41.19 43.42 41.98 42.27
56.97 56.27 54.37 54.76 55.96 54.00 49.79 40.41 28.28 39.17 39.60 42.01 41.02 41.29 38.57 41.22 40.58 39.54 37.92 35.47 38.96 37.37 34.40 33.36 32.71 38.83 39.37 38.76 36.92 34.23 35.46 27.43 20.45 20.96 29.94 32.12 26.68 34.01 41.42 42.97 42.01 43.40 40.57 41.27 40.44
56.69 54.93 53.02 53.50 54.60 52.46 43.85 30.33 35.85 41.27 43.45 42.07 41.76 36.16 36.85 39.53 39.94 38.79 36.77 37.03 39.73 39.55 34.36 33.53 33.70 36.43 37.53 38.56 40.28 34.62 30.37 36.44 29.77 21.82 22.46 30.59 33.23 38.64 40.24 40.79 41.27 39.71 40.01 38.84 39.15
54.32 52.10 51.04 54.47 53.48 48.87 38.11 33.91 38.91 44.89 44.32 41.89 35.14 38.60 34.68 37.28 36.06 37.30 37.18 40.44 39.81 41.77 42.78 38.21 33.03 36.48 33.55 35.29 34.16 33.63 35.72 28.62 28.63 17.63 17.63 30.16 29.34 31.65 35.12 37.72 38.23 38.97 38.93 39.39 40.06
52.94 47.22 52.64 54.17 51.78 43.42 32.97 34.09 40.03 44.85 45.55 40.97 38.69 35.64 36.34 36.17 37.81 37.23 37.20 39.89 41.91 40.98 42.64 39.61 36.82 33.35 32.94 30.35 32.42 29.83 29.20 31.17 32.16 28.80 24.51 26.07 28.77 35.63 38.31 39.16 39.40 39.79 40.01 40.38 41.01
50.58 42.01 51.73 52.36 41.35 40.88 36.11 37.77 42.39 42.11 45.14 42.84 38.25 37.05 35.75 37.02 35.70 34.06 34.99 38.58 42.40 40.80 36.67 38.91 35.98 30.80 34.50 35.78 35.22 36.51 34.78 34.55 28.17 27.00 27.03 29.31 31.13 36.40 38.10 38.88 39.98 39.81 40.70 40.86 41.79
44.65 46.29 50.30 50.69 38.42 38.80 37.52 39.01 41.11 41.28 41.90 41.10 39.85 38.53 40.16 36.47 32.72 35.39 36.82 42.48 43.86 40.86 37.70 37.51 32.22 27.49 28.95 34.44 31.35 31.57 33.75 36.22 36.30 32.77 29.37 26.57 30.05 41.39 40.60 37.46 38.50 38.38 38.69 40.13 40.69
44.08 39.18 42.66 44.63 45.71 42.05 40.10 37.19 37.27 42.47 41.14 42.51 41.25 41.89 39.31 36.51 38.64 35.20 36.13 39.74 41.38 41.50 42.52 40.72 34.04 30.88 26.86 31.37 35.54 30.78 31.84 33.77 33.38 28.98 29.71 29.87 32.37 37.67 40.01 41.03 42.64 43.36 40.66 40.73 41.34
42.21 39.38 42.87 36.33 36.57 39.23 41.44 40.57 38.09 36.92 41.83 43.05 40.17 40.47 37.91 34.81 35.68 35.40 36.90 38.27 40.43 41.76 39.26 36.84 30.26 31.70 32.49 33.86 33.61 32.78 33.14 34.05 32.08 31.70 28.87 31.88 32.45 36.86 39.79 40.95 42.35 43.59 43.33 41.96 41.95
37.09 37.77 37.57 35.71 37.03 36.13 38.38 36.32 38.15 39.14 40.56 38.74 38.30 40.26 40.57 37.25 37.71 35.74 38.27 37.19 36.51 36.89 37.53 37.40 30.27 31.91 30.37 32.63 32.34 30.33 32.55 33.53 33.77 33.42 33.86 33.38 31.81 39.52 41.35 42.21 41.72 42.40 42.94 41.79 42.13
41.03 40.00 35.70 33.44 34.28 32.77 34.26 36.54 35.80 34.54 37.45 41.84 40.12 39.87 39.01 40.49 43.06 43.30 43.71 43.23 41.71 39.07 36.73 32.51 31.33 29.05 25.58 30.90 30.65 26.95 31.00 31.94 33.21 35.23 34.31 29.74 35.37 40.54 40.05 40.80 41.51 42.24 42.96 42.33 42.53